Terminal Aerodrome Forecast
Issued by NWS Sterling, VA

Current Version | Previous Version | Graphics & Text | Print | Product List | Glossary On
Versions: 1 2 3 4 5 6 7 8 9 10 11 12 13 14 15 16 17 18 19 20 21 22 23 24 25
727
FTUS41 KLWX 010520
TAFDCA
TAF
KDCA 010520Z 0106/0206 20009KT P6SM FEW050 BKN070 OVC160
      TEMPO 0106/0108 3SM -SHRA BKN020
     FM010800 28010KT P6SM SCT100
     FM020400 27006KT P6SM FEW250=

USA.gov is the U.S. government's official web portal to all federal, state and local government web resources and services.